Flag for U.S.A. Weather past 2 weeks in Roanoke, Virginia, U.S.A.

Now
67 °F

Partly sunny.


Feels Like: 67 °F
Forecast: 66 / 81 °F
Wind: No wind

Location: Roanoke Regional Airport

Current Time: Aug 29, 2014 at 8:21:55 AM

Latest Report: Aug 29, 2014 at 7:54 AM


Visibility: 10 mi

Pressure: 30.18 "Hg

Humidity: 71%

Dew point: 57 °F

Location of RoanokeLocation

Historic Weather in Roanoke — Graph

°F

Roanoke temperature yesterday

Maximum temperature yesterday: 88 °F (at 3:54 PM)
Minimum temperature yesterday: 71 °F (at 6:54 AM)
Average temperature yesterday: 78 °F

Past Weeks' High & Low Weather Summary

 TemperatureHumidityPressure
High88 °F (Aug 21, 3:54 PM)100% (Aug 25, 6:54 AM)30.22 "Hg (Aug 25, 6:54 AM)
Low55 °F (Aug 16, 6:54 AM)32% (Aug 15, 6:54 PM)29.81 "Hg (Aug 18, 6:54 PM)
Average72 °F74%30.02 "Hg
* Reported Aug 14 6:54 AM — Aug 29 6:54 AM, Roanoke, Weather by CustomWeather, © 2014

Note: Actual official high and low records may vary slightly from our data, if they occured in-between our weather recording intervals... More about our weather records

Advertising

Roanoke weather history for previous 24 hours

 ConditionsComfort  
Time TempWeatherWind HumidityBarometerVisibility
6:54 AM
Aug 29
66 °FOvercast.No wind68%30.15 "Hg10 mi
5:54 AM67 °FPassing clouds.No wind73%30.14 "Hg10 mi
4:54 AM67 °FPassing clouds.No wind81%30.12 "Hg10 mi
3:54 AM68 °FPassing clouds.No wind82%30.11 "Hg10 mi
2:54 AM69 °FOvercast.3 mph79%30.10 "Hg10 mi
1:54 AM69 °FPassing clouds.3 mph79%30.10 "Hg10 mi
12:54 AM73 °FClear.5 mph64%30.09 "Hg10 mi
11:54 PM
Aug 28
74 °FClear.6 mph64%30.07 "Hg10 mi
10:54 PM78 °FClear.No wind54%30.06 "Hg10 mi
9:54 PM78 °FClear.3 mph58%30.05 "Hg10 mi
8:54 PM78 °FClear.7 mph60%30.02 "Hg10 mi
7:54 PM79 °FPassing clouds.7 mph62%30.00 "Hg10 mi
6:54 PM85 °FPassing clouds.12 mph50%29.98 "Hg10 mi
5:54 PM87 °FPassing clouds.13 mph46%29.98 "Hg10 mi
4:54 PM88 °FScattered clouds.10 mph45%29.97 "Hg10 mi
3:54 PM88 °FScattered clouds.9 mph45%29.97 "Hg10 mi
2:54 PM87 °FScattered clouds.8 mph46%29.98 "Hg10 mi
1:54 PM85 °FPartly sunny.9 mph51%30.00 "Hg10 mi
12:54 PM84 °FBroken clouds.3 mph51%30.01 "Hg10 mi
11:54 AM82 °FPartly sunny.7 mph58%30.03 "Hg10 mi
10:54 AM79 °FBroken clouds.5 mph67%30.03 "Hg10 mi
9:54 AM78 °FPartly sunny.3 mph69%30.03 "Hg10 mi
8:54 AM75 °FPartly sunny.3 mph76%30.03 "Hg10 mi
Weather by CustomWeather, © 2014

See weather overviewHow to use our weather pages